NOAA 17 DEB, 48162

Orbit data source: Space-Track

NOAA 17 DEB, 48162 is space debris in SSO originally from a launch on Mon, 24 Jun 2002 UTC launched from the Air Force Western Test Range (AFWTR). Debris objects in space refer to the collection of defunct objects orbiting the Earth. Examples of debris include non-operational satellites, rocket bodies, and fragments generated from explosions, collisions, or faulty payload assembly.

Loading next visibility...
Identifier
48162, 2002-032C
Orbit
SSO
Country
Flag of USUS
Related business
Manufacturer
Unknown
Mission
Spacecraft
Bus & Motor
Unknown
Mass
Unknown
Launch date (UTC)
2002-06-24 (23 years ago)
Launch vehicle
Unknown
Launch site
Air Force Western Test Range (AFWTR)
Object type
Payload
Rocket body
Debris
Shape & HBR
Unknown shape, 0.1 m
Radar Cross Section
Small (<0.1 m²)

Expand to show TLE details & history
Last TLE update: 16 hours ago

TLE from 16 hours ago
0 NOAA 17 DEB
1 48162U 02032C   25349.85962217  .00003266  00000-0  10486-2 0  9999
2 48162  98.7800 315.9186 0018168 129.1872 231.0932 14.40029104248506
Epoch: 2025-12-15T20:37Z
TLE epoch observation values (Epoch: 2025-12-15T20:37:51.355Z)
Latitude
-0.00005°
Longitude
-78.29751°
Altitude
769.501 km
Speed
7.465 km/s
True Right ascension
21h 03m 40s
True Declination
0° 00' 00"
Sunlit
Object was in daylight at epoch
Visualization orbit readout
Latitude
Unknown
Longitude
Unknown
Altitude
Unknown
Speed
Unknown
Apparent Right ascension
Unknown
Apparent Declination
Unknown
Sunlit
N/A
Visualization observer readout
Local Sidereal Time
11:31:05
Azimuth
Unknown
Elevation
Unknown
Doppler factor
Unknown
Orbital elements
Apogee altitude
768.498 km
Perigee altitude
742.577 km
Semi-major axis
7,133.675 km
Eccentricity
0.00182
Inclination
98.78°
RAAN
315.9186°
Arg. of periapsis
129.1872°
True anomaly
230.93142°
Mean anomaly
231.0932°
Eccentric anomaly
231.01229°
Mean motion
3.60224 °/min
Orbital period
99.94 mins
BSTAR
0.0010486
Loading maneuver chart data...
Computing Atmospheric mass density...
Loading historical data...
Loading historical data...
Loading historical data...
Loading historical data...
Loading historical data...
Loading historical data...
Loading historical data...

Documentation

Showing up to 5 results
|